Location: Barbegal
(43.6953°N, 4.7157°E)
Time: 06:15:41
(UTC+00:00)

Daily predictions for brighter satellites

Satellite Brightness Start Highest point End
(mag) Time Altitude Azimuth Time Altitude Azimuth Time Altitude Azimuth
Meteor 1-20 Rocket 4.2 19:23:38 10° N 19:29:14 80° E 19:34:43 10° SSE
ATLAS 5 CENTAUR R/B 2.9 19:24:16 10° NW 19:29:58 63° WSW 19:36:36 10° SSE
Cosmos 1602 3.9 19:31:55 10° N 19:35:46 57° E 19:39:35 10° SSE
Cosmos 1437 3.0 19:36:31 10° SSE 19:39:10 36° E 19:41:49 10° NNE
SPOT 3 Rocket 4.3 19:34:35 10° SE 19:39:14 35° ENE 19:43:54 10° N
S3M 4.3 19:33:59 10° S 19:40:21 80° W 19:46:42 10° N
USA 307 3.5 19:37:00 10° NW 19:41:11 51° NNE 19:45:21 10° ESE
Cosmos 1666 4.2 19:46:27 10° NNE 19:49:17 20° ENE 19:51:45 12° ESE
IRS-1A Rocket 4.4 19:44:50 10° SSE 19:50:39 88° ENE 19:56:35 10° NNW
Tianhe-1 2.4 19:48:27 10° SSW 19:50:55 22° SSE 19:53:07 12° ESE
Cosmos 1812 3.5 19:48:18 10° SSE 19:51:46 33° E 19:55:16 10° NNE
OBJECT-B 2.0 19:49:21 10° S 19:52:26 42° W 19:55:33 10° NNW
Cosmos 2315 Rocket 4.1 19:48:26 10° S 19:54:46 73° E 20:01:08 10° NNE
USA 308 3.2 19:50:47 10° NW 19:55:03 62° NNE 19:58:53 12° ESE
Cosmos 1833 Rocket 2.8 19:51:53 10° NNW 19:57:33 67° ENE 20:02:45 12° SE
Cosmos 1242 Rocket 4.1 19:57:18 10° SW 20:00:38 37° WNW 20:03:56 10° N
Cosmos 1782 2.9 19:57:23 10° S 20:01:22 79° W 20:05:22 10° N
Landsat 7 4.2 19:57:42 11° SE 20:02:00 48° ENE 20:06:34 10° N
Cosmos 1515 Rocket 4.0 19:58:02 10° SSE 20:02:12 43° E 20:06:22 10° NNE
Resurs 01 Rocket 1.8 19:58:10 10° SSE 20:02:30 60° ENE 20:06:53 10° N
Cosmos 1777 Rocket 4.0 19:57:57 10° SSW 20:03:08 88° ESE 20:08:23 10° NNE
deb Kosmos-1763 4.3 20:01:01 10° N 20:04:28 49° ENE 20:07:01 16° SE
ISS -3.2 20:02:02 10° SSW 20:05:07 34° SE 20:08:13 10° ENE
BREEZE-M DEB (TANK) 3.4 20:03:55 10° NW 20:05:49 21° N 20:07:32 10° ENE
Cosmos 1633 Rocket 3.2 20:03:05 10° NNW 20:07:30 75° W 20:11:54 10° S
Ariane Rocket 3.3 20:03:02 10° S 20:08:03 68° WSW 20:13:07 10° NNW
GPS 2-04 Rocket1 4.1 20:04:51 10° WSW 20:08:17 25° S 20:10:26 16° SE
NOSS 3-4 (A) 4.1 20:04:58 10° NNW 20:11:54 62° NE 20:18:18 16° SE
NOSS 3-4 (C) 4.1 20:05:06 10° NNW 20:12:01 61° NE 20:18:24 16° SE
Cosmos 1328 Rocket 3.7 20:10:00 10° SSW 20:14:25 76° W 20:18:50 10° N
CZ-2C R/B 4.0 20:10:42 10° NNE 20:15:04 46° E 20:19:29 10° S
Meteor 1-5 Rocket 4.1 20:14:14 10° N 20:19:34 67° ENE 20:23:51 16° SSE
Cosmos 1500 3.1 20:16:16 10° N 20:20:02 82° W 20:23:13 14° S
Iridium 4 Rocket 4.2 20:16:22 14° SSE 20:21:02 45° E 20:26:38 10° NNE
EP 1 4.4 20:18:27 10° SW 20:21:50 87° ESE 20:24:34 10° NE
Cosmos 1470 Rocket 3.6 20:19:25 10° N 20:23:56 88° WSW 20:27:48 14° S
Meteor 1-11 Rocket 4.4 20:18:57 10° N 20:24:35 42° ENE 20:28:20 20° SE
ATLAS 2AS CENTAUR R/B 3.4 20:18:04 10° NNW 20:25:10 46° NE 20:30:28 16° ESE
CARTOSAT-1 4.4 20:25:51 20° ESE 20:28:06 34° ENE 20:32:01 10° N
Cosmos 158 Rocket 3.9 20:27:57 10° NNW 20:32:49 63° ENE 20:35:49 23° SE
USA 305 3.0 20:28:58 10° WNW 20:33:13 67° SW 20:35:32 25° SE
MetOp-B 4.1 20:32:28 17° SSE 20:36:40 88° ENE 20:42:04 10° NNW
Cosmos 1933 Rocket 3.5 20:33:23 10° N 20:37:45 85° E 20:40:34 22° S
SJ 16-02 1.7 20:38:03 10° SSW 20:42:27 67° WNW 20:46:53 10° NNE
BREEZE-M R/B 4.2 20:40:41 10° WNW 20:42:43 22° N 20:44:50 10° NE
CREW DRAGON DEMO-1 DEB 3.5 20:42:04 10° WNW 20:44:26 31° SW 20:44:38 30° SSW
Cosmos 2082 Rocket 2.1 20:40:37 10° NNW 20:46:16 83° ENE 20:49:37 26° SSE
Meteor 1-10 Rocket 4.2 20:41:22 10° S 20:46:57 83° E 20:52:40 10° NNE
Milstar 3 4.4 20:33:42 10° WSW 20:48:06 37° S 20:53:32 22° SE
ARIANE 5 R/B 2.7 20:47:10 30° SE 20:49:10 61° ENE 20:53:27 10° N
Cosmos 1536 3.4 20:48:06 10° N 20:51:57 42° ENE 20:53:04 33° ESE
USA 306 3.4 20:48:40 10° WNW 20:52:46 47° SW 20:54:24 31° S
Cosmos 44 3.9 20:51:48 10° NNW 20:57:08 54° NE 20:59:42 28° ESE
Cosmos 1943 Rocket 2.7 20:55:13 28° SE 20:57:10 36° ESE 21:02:15 10° NE
OAO 3 Rocket 4.1 20:53:57 10° SW 20:57:43 27° S 20:57:43 27° S
USA 245 2.5 20:59:37 56° WNW 20:59:37 56° WNW 21:01:43 10° NNW
Cosmos 1271 Rocket 3.3 20:58:44 15° SSW 21:01:58 60° WNW 21:05:56 10° N
SPOT 1/Viking Rocket 3.7 20:59:04 22° S 21:02:24 69° WSW 21:07:36 10° NNW
CZ-4C R/B 3.9 20:56:26 10° NW 21:03:27 43° WSW 21:09:35 17° S
COSMOS 2406 4.4 20:59:46 10° NW 21:04:55 36° WSW 21:08:57 15° SSW
Cosmos 2112 Rocket 4.3 21:00:02 10° NNW 21:05:20 58° ENE 21:07:33 33° SE
Cosmos 2278 Rocket 3.7 21:04:19 10° WSW 21:09:31 37° NW 21:14:45 10° N
Terra 2.3 21:07:58 34° ESE 21:09:33 48° ENE 21:14:07 10° N
Cosmos 2154 Rocket 4.0 21:04:05 10° N 21:10:26 78° E 21:13:44 30° SSE
ERS-1 Rocket 2.9 21:09:37 36° SSE 21:11:42 73° ENE 21:16:43 10° N
JB-3 4.2 21:08:40 10° N 21:12:32 83° WNW 21:14:01 36° SSW
Cosmos 1900 4.3 21:08:02 10° SSW 21:13:08 80° ESE 21:18:13 10° NE
Cosmos 2369 Rocket 3.2 21:14:38 27° ESE 21:14:46 27° ESE 21:19:24 10° NE
Spot 2 Rocket 3.6 21:12:45 29° S 21:15:18 70° WSW 21:20:20 10° NNW
Nadezhda 1 Rocket 3.9 21:11:35 22° S 21:15:56 87° E 21:22:11 10° N
Cosmos 2074 Rocket 4.3 21:10:41 10° NNW 21:16:54 63° W 21:21:10 21° SSW
Cosmos 2184 Rocket 4.2 21:10:54 10° NNW 21:17:01 65° W 21:21:01 22° S
Cosmos 1937 Rocket 3.5 21:15:45 38° SSE 21:17:26 55° ESE 21:22:30 10° NNE
USA 307 4.0 21:17:16 10° WNW 21:21:00 30° SW 21:21:41 28° SSW
Cosmos 1666 4.5 21:21:41 10° NNW 21:24:48 26° W 21:26:37 18° SW
Cosmos 1544 2.9 21:23:28 10° N 21:27:06 81° E 21:27:16 77° SE
Tianhe-1 3.2 21:24:05 10° WSW 21:25:07 19° WSW 21:25:07 19° WSW
Cosmos 1680 Rocket 3.6 21:25:50 10° NNW 21:31:10 75° WSW 21:33:00 42° S
ERBS 3.1 21:30:28 10° NW 21:33:37 41° NE 21:33:40 41° NE
Cosmos 858 Rocket 4.4 21:32:49 40° S 21:34:42 76° ESE 21:39:57 10° NNE
USA 308 4.4 21:31:18 10° WNW 21:34:44 24° SW 21:34:59 23° SW
SPOT 5 3.2 21:33:21 39° S 21:35:17 71° WSW 21:40:37 10° NNW
Meteor 1-27 Rocket 4.2 21:31:40 19° SSW 21:35:54 64° WNW 21:41:49 10° N
Cosmos 967 Rocket 4.5 21:30:46 10° SW 21:37:02 82° WNW 21:43:21 10° NNE
Cosmos 2228 Rocket 4.2 21:34:55 19° SW 21:37:42 41° WNW 21:41:58 10° N
Resurs 01 Rocket 4.2 21:37:07 10° WSW 21:39:23 14° W 21:41:38 10° WNW
Cosmos 1862 Rocket 3.9 21:41:00 46° E 21:41:00 46° E 21:45:01 10° NNE
ISS -2.4 21:38:42 10° W 21:41:54 39° NNW 21:45:06 10° NE
H-2A R/B 3.4 21:40:48 10° NNE 21:45:00 85° WNW 21:45:34 65° SSW
Cosmos 1461 3.1 21:47:22 41° SW 21:49:01 86° WNW 21:53:42 10° NNE
Cosmos 2181 Rocket 4.0 21:48:58 45° SE 21:50:35 60° E 21:56:36 10° NNE
Cosmos 1607 4.3 21:50:11 43° SE 21:50:55 45° ESE 21:57:03 10° NE
Meteor 1-19 Rocket 4.1 21:50:33 52° SE 21:51:26 60° E 21:56:45 10° NNE
Cosmos 2366 rocket 4.3 21:45:42 10° N 21:51:46 53° ENE 21:53:25 42° SE
Cosmos 1743 2.8 21:49:18 10° NNW 21:53:09 67° W 21:53:10 67° W
Cosmos 1238 Rocket 3.4 21:49:06 10° N 21:54:56 74° E 21:55:49 59° SE
Cosmos 489 Rocket 4.5 21:52:16 10° NNW 21:58:32 75° ENE 22:00:19 49° SE
Gbstr 26 Del rocket 4.0 21:53:32 10° WNW 22:01:04 89° NNE 22:03:20 44° ESE
SL-24 R/B - RUBIN 2 4.3 21:56:20 10° NW 22:01:25 48° WSW 22:01:57 46° SW
Cosmos 372 Rocket 3.8 22:01:37 65° S 22:02:17 78° ESE 22:07:24 10° NNE
Meteor 2-4 Rocket 4.1 22:02:15 43° ESE 22:02:44 44° E 22:08:00 10° NNE
Cosmos 1707 Rocket 4.2 22:02:20 42° WSW 22:03:19 51° WNW 22:07:39 10° N
Cosmos 1340 Rocket 3.8 22:02:22 10° NNW 22:06:09 37° W 22:06:27 36° WSW
ATLAS CENTAUR R/B 3.4 22:08:51 15° NE 22:08:51 15° NE 22:09:41 10° NE
Okean 1 3.4 22:06:42 72° WNW 22:06:42 72° WNW 22:10:32 10° N
Cosmos 1818 3.6 22:03:41 10° NW 22:09:08 66° WSW 22:09:54 58° SSW
Cosmos 2341 Rocket 4.1 22:05:31 10° NNW 22:11:54 71° W 22:13:55 45° SSW
ATLAS 2AS CENTAUR R/B 3.3 22:09:20 10° NW 22:16:06 44° WSW 22:17:54 37° SSW
Cosmos 2218 Rocket 3.9 22:13:43 10° N 22:20:04 89° E 22:21:36 55° S
ALOS 2 3.8 22:26:55 32° ENE 22:26:55 32° ENE 22:30:44 10° N
Cosmos 2082 Rocket 4.3 22:26:45 10° WNW 22:29:33 14° W 22:31:29 12° WSW
Cosmos 2150 Rocket 4.2 22:30:06 57° E 22:30:06 57° E 22:35:06 10° NNE
Cosmos 1733 Rocket 4.0 22:29:08 10° NNW 22:33:08 39° W 22:33:08 39° W
Nadezhda 3 Rocket 4.3 22:33:54 46° ESE 22:34:36 48° E 22:40:30 10° NNE
SL-8 Rocket 4.3 22:28:44 10° NNW 22:34:57 60° W 22:36:32 46° SW
Cosmos 468 4.5 22:32:36 10° NNW 22:37:52 68° ENE 22:38:11 66° E
Cosmos 1125 Rocket 3.8 22:40:56 54° E 22:40:56 54° E 22:45:36 10° NNE
Cosmos 1943 Rocket 3.5 22:36:39 14° WSW 22:40:54 36° NW 22:46:01 10° N
Gblst 52 Del rocket 4.3 22:34:46 10° WNW 22:41:43 81° SW 22:42:46 64° SE
Cosmos 1975 3.8 22:41:53 10° NNW 22:44:59 43° NW 22:44:59 43° NW
Terra 3.7 22:46:51 19° WSW 22:47:32 19° W 22:50:58 10° NW
Cosmos 1656 Rocket 3.5 22:51:36 70° SW 22:52:12 80° WNW 22:57:46 10° NNE
Cosmos 1908 Rocket 3.9 22:47:46 10° NNW 22:51:44 62° NW 22:51:44 62° NW
Cosmos 44 Rocket 4.0 22:48:47 10° NNW 22:53:52 49° NE 22:54:36 45° ENE
Cosmos 1356 Rocket 4.3 22:52:10 10° N 22:55:40 46° NE 22:55:40 46° NE
RESURS DK-1 3.2 22:52:23 10° NNW 22:55:31 49° NW 22:55:31 49° NW
Cosmos 2369 Rocket 3.0 22:56:22 32° WSW 22:58:29 47° WNW 23:03:57 10° NNE
Cosmos 2344 4.5 22:49:40 10° NW 22:58:58 71° NE 23:07:10 26° SE
Cosmos 2242 Rocket 3.9 22:59:33 62° NW 22:59:33 62° NW 23:03:32 10° N
Cosmos 1867 4.1 23:00:33 39° WSW 23:02:14 55° NW 23:07:38 10° NNE
SL-08 R/B 4.4 22:58:12 10° NNW 23:04:27 74° W 23:05:23 63° SSW
Cosmos 2239 Rocket 4.5 22:59:37 10° N 23:05:57 73° E 23:06:52 63° SE
Okean 2 Rocket 4.4 23:04:18 10° N 23:07:49 31° ENE 23:07:49 31° ENE
Meteor 1-12 Rocket 4.1 23:06:07 10° N 23:11:59 85° E 23:12:22 78° SE
COSMOS 2455 4.4 23:09:29 10° NNW 23:14:41 29° NE 23:18:25 16° E
ISS -1.1 23:16:42 10° NW 23:19:20 21° N 23:21:59 10° NE
Cosmos 1048 Rocket 4.4 23:14:37 10° NNW 23:19:24 51° W 23:19:24 51° W
Okean 1-7 4.0 23:20:54 40° WNW 23:20:54 40° WNW 23:24:28 10° N
Cosmos 1782 Rocket 4.3 23:20:15 10° NNW 23:23:48 48° NW 23:23:48 48° NW
Cosmos 1934 Rocket 3.8 23:23:29 10° N 23:29:37 75° E 23:30:16 68° SE
Cosmos 1805 4.5 23:27:13 10° N 23:29:50 40° N 23:29:50 40° N
Meteor 1-15 Rocket 4.1 23:29:01 10° N 23:34:47 81° E 23:35:10 76° SE
Cosmos 1066 Rocket 4.1 23:35:52 76° WSW 23:36:11 79° W 23:41:51 10° N
SeaSat 1 3.5 23:31:46 10° NE 23:35:22 34° E 23:35:22 34° E
Cosmos 1821 Rocket 4.2 23:30:06 10° NNW 23:36:21 56° W 23:37:08 52° WSW
Cosmos 1269 Rocket 4.1 23:32:01 10° NNW 23:37:18 68° ENE 23:37:26 68° ENE
Cosmos 1726 4.4 23:42:02 10° NNE 23:44:07 18° ENE 23:44:07 18° ENE
NOSS 2-1 (E) 4.3 23:39:46 10° NW 23:44:58 84° NE 23:46:03 63° SE
ATLAS CENTAUR R/B 3.3 23:44:57 21° NW 23:45:12 22° NW 23:48:13 10° N
Lacrosse 5 1.9 23:46:15 77° N 23:46:15 77° N 23:51:04 10° NE
Thor Agena Rocket 3.5 23:42:05 10° NNE 23:47:22 84° WNW 23:47:25 84° W
Cosmos 1766 4.4 23:44:09 10° N 23:46:52 42° N 23:46:52 42° N
Cosmos 2227 Rocket 4.1 23:44:30 10° N 23:49:06 25° NE 23:53:01 13° E
Cosmos 2297 Rocket 3.6 23:46:35 10° N 23:51:39 32° NE 23:54:30 21° E
Cosmos 2221 Rocket 4.0 23:55:36 63° NNW 23:55:36 63° NNW 23:59:31 10° N
